Regional Weather Roundup
Issued by NWS

Home | Current Version | Previous Version | Text Only | Print | Product List | Glossary Off
Versions: 1 2 3 4 5 6 7 8 9 10 11 12 13 14 15 16 17 18 19 20 21 22 23 24 25 26 27 28 29 30 31 32 33 34 35 36 37 38 39 40 41 42 43 44 45 46 47 48 49 50

593
ASUS45 KBOI 020510
RWRID

IDAHO REGIONAL WEATHER ROUNDUP
NATIONAL WEATHER SERVICE BOISE ID
1000 PM MST THU DEC 01 2016

NOTE: "FAIR" INDICATES FEW OR NO CLOUDS BELOW 12000 FEET
WITH NO SIGNIFICANT WEATHER AND/OR OBSTRUCTIONS TO VISIBILITY

IDZ012-014-020600-
SOUTHWEST IDAHO


CITY           SKY/WX    TMP DP  RH WIND       PRES   REMARKS
BOISE          CLEAR     30  26  85 W5        30.23R WCI  25
CALDWELL       CLEAR     28  26  92 W8        30.27R WCI  20
MOUNTAIN HOME  CLEAR     28  25  88 NW14      30.21R WCI  17
$$

IDZ016-017-020600-
SOUTHCENTRAL IDAHO


CITY           SKY/WX    TMP DP  RH WIND       PRES   REMARKS
BURLEY         PTCLDY    27  22  81 SW5       30.15R WCI  22
JEROME         CLOUDY    26  23  88 SW6       30.16R WCI  19
TWIN FALLS     CLEAR     25  21  85 S9        30.16R WCI  15
$$

IDZ019>023-020600-
SOUTHEAST IDAHO


CITY           SKY/WX    TMP DP  RH WIND       PRES   REMARKS
IDAHO FALLS    CLOUDY    25  20  81 S3        30.12S
POCATELLO      LGT SNOW  28  26  92 SW13      30.15R FOG     WCI  17
REXBURG        CLOUDY    26  21  81 S3        30.12R
$$

IDZ006-010-011-018-031-032-020600-
CENTRAL IDAHO MOUNTAINS


CITY           SKY/WX    TMP DP  RH WIND       PRES   REMARKS
MCCALL         MOCLDY    18  14  84 E3        30.16R
HAILEY         PTCLDY    19  19 100 MISG      30.12R
STANLEY          N/A     17  14  88 SW3       30.12R
SALMON         CLOUDY    27  25  93 CALM      30.17R
CHALLIS        MOCLDY    18  17  96 CALM      30.14R
$$

IDZ002-004-006-007-026-020600-
NORTHERN IDAHO


CITY           SKY/WX    TMP DP  RH WIND       PRES   REMARKS
LEWISTON       MOCLDY    35  25  66 SE3       30.30R
LOWELL           N/A     34  33  96 CALM      30.32R
COEUR D`ALENE  CLOUDY    32  31  96 S6        30.25R WCI  26
MULLAN PASS    CLOUDY    21  19  92 CALM      30.10R FOG
$$




USA.gov is the U.S. government's official web portal to all federal, state and local government web resources and services.